Weather History for Gulf Shores, AL

Change the Weather History Date:

Tuesday, February 5, 2013

  Actual Average (KPNS) Record (KPNS)
Temperature  
Mean Temperature 60 °F 53 °F  
Max Temperature 68 °F 62 °F 77 °F (1975)
Min Temperature 53 °F 44 °F 15 °F (1996)
Degree Days  
Heating Degree Days 4 12  
Month to date heating degree days 63  
Since 1 July heating degree days 1074  
Cooling Degree Days 0 0  
Month to date cooling degree days 0  
Year to date cooling degree days 6  
Growing Degree Days 10 (Base 50)    
Moisture  
Dew Point 56 °F    
Average Humidity 89    
Maximum Humidity 94    
Minimum Humidity 73    
Precipitation  
Precipitation 0.30 in 0.18 in 5.75 in (1955)
Month to date precipitation 0.88  
Year to date precipitation 5.51  
Snow  
Snow 0.00 in 0.00 in - ()
Month to date snowfall 0.0  
Since 1 July snowfall 0.0  
Snow Depth -    
Sea Level Pressure  
Sea Level Pressure 30.00 in    
Wind  
Wind Speed 4 mph (ENE)    
Max Wind Speed 13 mph    
Max Gust Speed 17 mph    
Visibility 8 miles    
Events Fog , Rain    
T = Trace of Precipitation, MM = Missing Value Source: NWS Daily Summary

Daily Weather History Graph

Daily Weather History Graph

Search for Another Location

Airport:

Trip Planner

Search our weather history database for the weather conditions in past years. The results will help you decide how hot, cold, wet, or windy it might be!

Date:

Astronomy

Feb. 05, 2013 Rise Set
Actual Time 6:38 AM CST 5:31 PM CST
Civil Twilight 6:13 AM CST 5:56 PM CST
Nautical Twilight 5:45 AM CST 6:24 PM CST
Astronomical Twilight 5:17 AM CST 6:52 PM CST
Moon 2:12 AM CST (2/5) 12:56 PM CST (2/5)
Length of Visible Light 11h 42m
Length of Day
10h 52m
Waning Crescent, 26% of the Moon is Illuminated
Feb 5
Waning Crescent
Feb 10
New
Feb 17
First Quarter
Feb 25
Full
Mar 4
Last Quarter

Hourly Weather History & Observations

Time (CST) Temp. Dew Point Humidity Pressure Visibility Wind Dir Wind Speed Gust Speed Precip Events Conditions
12:15 AM 59.0 °F 51.8 °F 77% 30.00 in 10.0 mi Calm Calm - N/A Rain Light Rain
12:35 AM 57.2 °F 51.8 °F 82% 30.01 in 10.0 mi North 3.5 mph - N/A Rain Rain
12:55 AM 55.4 °F 53.6 °F 94% 30.00 in 10.0 mi North 4.6 mph - 0.01 in Rain Light Rain
1:15 AM 55.4 °F 53.6 °F 94% 30.01 in 7.0 mi Calm Calm - N/A Rain Light Rain
1:35 AM 55.4 °F 53.6 °F 94% 30.00 in 5.0 mi Calm Calm - N/A Rain Rain
1:55 AM 55.4 °F 53.6 °F 94% 30.00 in 5.0 mi Calm Calm - N/A Rain Light Rain
2:15 AM 55.4 °F 53.6 °F 94% 29.99 in 7.0 mi ENE 3.5 mph - N/A Rain Light Rain
2:35 AM 55.4 °F 53.6 °F 94% 29.99 in 10.0 mi Calm Calm - N/A Rain Light Rain
2:55 AM 55.4 °F 53.6 °F 94% 29.99 in 10.0 mi North 3.5 mph - N/A   Light Drizzle
3:15 AM 55.4 °F 53.6 °F 94% 29.98 in 7.0 mi ENE 4.6 mph - N/A Rain Rain
3:35 AM 55.4 °F 53.6 °F 94% 29.98 in 5.0 mi NE 3.5 mph - N/A Rain Rain
3:55 AM 55.4 °F 53.6 °F 94% 29.98 in 4.0 mi NNE 4.6 mph - N/A Rain Rain
4:15 AM 55.4 °F 53.6 °F 94% 29.98 in 7.0 mi NE 4.6 mph - 0.01 in Rain Rain
4:35 AM 55.4 °F 53.6 °F 94% 29.99 in 4.0 mi North 4.6 mph - 0.01 in Rain Heavy Rain
4:55 AM 55.4 °F 53.6 °F 94% 29.99 in 5.0 mi NNE 8.1 mph - 0.01 in Rain Rain
5:15 AM 55.4 °F 53.6 °F 94% 29.98 in 7.0 mi NE 10.4 mph - N/A Rain Light Rain
5:35 AM 55.4 °F 53.6 °F 94% 29.98 in 10.0 mi ENE 6.9 mph - N/A Rain Rain
5:55 AM 55.4 °F 53.6 °F 94% 29.99 in 10.0 mi NE 5.8 mph - N/A   Light Drizzle
6:15 AM 55.4 °F 53.6 °F 94% 29.99 in 10.0 mi ENE 6.9 mph - N/A   Overcast
6:55 AM 57.2 °F 53.6 °F 88% 29.99 in 10.0 mi North - - N/A   Light Drizzle
7:15 AM 57.2 °F 55.4 °F 94% 30.00 in 10.0 mi North - - N/A   Overcast
7:35 AM 59.0 °F 55.4 °F 88% 30.00 in 10.0 mi East 10.4 mph - N/A   Overcast
8:15 AM 59.0 °F 55.4 °F 88% 30.01 in 10.0 mi East 10.4 mph - N/A   Overcast
8:35 AM 59.0 °F 57.2 °F 94% 30.01 in 10.0 mi East 9.2 mph - N/A   Overcast
8:55 AM 60.8 °F 59.0 °F 94% 30.02 in 10.0 mi East 9.2 mph 16.1 mph N/A   Overcast
9:15 AM 60.8 °F 59.0 °F 94% 30.03 in 10.0 mi East 9.2 mph - 0.01 in   Overcast
9:35 AM 60.8 °F 59.0 °F 94% 30.02 in 10.0 mi East 10.4 mph - 0.01 in   Overcast
9:55 AM 62.6 °F 59.0 °F 88% 30.03 in 10.0 mi East 12.7 mph 17.3 mph 0.01 in   Overcast
10:15 AM 62.6 °F 59.0 °F 88% 30.03 in 10.0 mi East 10.4 mph - N/A   Overcast
10:35 AM 62.6 °F 59.0 °F 88% 30.03 in 10.0 mi East 9.2 mph - N/A   Overcast
10:55 AM 64.4 °F 59.0 °F 83% 30.02 in 10.0 mi East 9.2 mph - N/A   Overcast
11:15 AM 64.4 °F 59.0 °F 83% 30.02 in 10.0 mi East 10.4 mph - N/A   Overcast
11:35 AM 64.4 °F 59.0 °F 83% 30.02 in 10.0 mi ESE 9.2 mph - N/A   Overcast
11:55 AM 64.4 °F 59.0 °F 83% 30.02 in 10.0 mi East 8.1 mph - N/A   Overcast
12:15 PM 64.4 °F 59.0 °F 83% 30.01 in 10.0 mi East 5.8 mph - N/A   Overcast
12:35 PM 62.6 °F 59.0 °F 88% 30.00 in 10.0 mi East 8.1 mph - N/A   Overcast
12:55 PM 64.4 °F 59.0 °F 83% 29.99 in 10.0 mi ENE 5.8 mph - N/A   Overcast
1:15 PM 64.4 °F 59.0 °F 83% 29.99 in 10.0 mi North - - 0.01 in   Overcast
1:35 PM 64.4 °F 59.0 °F 83% 29.98 in 10.0 mi North - - 0.01 in   Overcast
1:55 PM 64.4 °F 59.0 °F 83% 29.98 in 10.0 mi ENE 10.4 mph - 0.01 in   Overcast
2:15 PM 64.4 °F 59.0 °F 83% 29.98 in 10.0 mi ENE 8.1 mph - N/A   Overcast
2:35 PM 64.4 °F 59.0 °F 83% 29.98 in 10.0 mi ENE 10.4 mph - N/A   Overcast
2:55 PM 68.0 °F 59.0 °F 73% 29.97 in 10.0 mi ENE 8.1 mph - 0.01 in   Overcast
3:15 PM 68.0 °F 59.0 °F 73% 29.97 in 10.0 mi East 8.1 mph - 0.01 in   Mostly Cloudy
3:35 PM 66.2 °F 59.0 °F 78% 29.97 in 10.0 mi East 6.9 mph - 0.02 in   Scattered Clouds
3:55 PM 64.4 °F 59.0 °F 83% 29.97 in 10.0 mi East 4.6 mph - 0.04 in   Scattered Clouds
4:15 PM 64.4 °F 59.0 °F 83% 29.97 in 10.0 mi ENE 4.6 mph - 0.02 in   Mostly Cloudy
4:35 PM 64.4 °F 57.2 °F 77% 29.97 in 10.0 mi ENE 6.9 mph - 0.04 in   Overcast
4:55 PM 64.4 °F 57.2 °F 77% 29.97 in 10.0 mi ENE 5.8 mph - 0.06 in   Mostly Cloudy
5:15 PM 62.6 °F 57.2 °F 82% 29.97 in 10.0 mi ENE 5.8 mph - 0.01 in   Scattered Clouds
5:35 PM 62.6 °F 57.2 °F 82% 29.98 in 10.0 mi NE 3.5 mph - 0.03 in   Clear
5:55 PM 62.6 °F 57.2 °F 82% 29.98 in 10.0 mi North 3.5 mph - 0.04 in   Clear
6:15 PM 59.0 °F 55.4 °F 88% 29.98 in 10.0 mi Calm Calm - 0.01 in   Clear
6:35 PM 57.2 °F 55.4 °F 94% 29.99 in 10.0 mi Calm Calm - 0.02 in   Clear
6:55 PM 59.0 °F 55.4 °F 88% 30.00 in 7.0 mi Calm Calm - 0.04 in   Scattered Clouds
7:15 PM 57.2 °F 53.6 °F 88% 30.00 in 7.0 mi Calm Calm - 0.01 in   Scattered Clouds
7:35 PM 55.4 °F 53.6 °F 94% 30.01 in 0.8 mi Calm Calm - 0.01 in   Mostly Cloudy
7:55 PM 55.4 °F 53.6 °F 94% 30.02 in 1.0 mi NNE 3.5 mph - 0.02 in   Mostly Cloudy
8:15 PM 57.2 °F 55.4 °F 94% 30.02 in 7.0 mi Calm Calm - 0.01 in   Clear
8:35 PM 53.6 °F 51.8 °F 94% 30.02 in 7.0 mi Calm Calm - 0.01 in   Scattered Clouds
8:55 PM 53.6 °F 51.8 °F 94% 30.02 in 0.5 mi Calm Calm - 0.02 in Fog Fog
9:15 PM 53.6 °F 51.8 °F 94% 30.03 in 0.2 mi Calm Calm - N/A Fog Fog
9:35 PM 53.6 °F 51.8 °F 94% 30.03 in 0.2 mi Calm Calm - 0.01 in Fog Fog
9:55 PM 55.4 °F 53.6 °F 94% 30.04 in 0.2 mi North 3.5 mph - 0.01 in Fog Fog
10:15 PM 53.6 °F 51.8 °F 94% 30.04 in 0.2 mi Calm Calm - N/A Fog Fog
10:35 PM 53.6 °F 51.8 °F 94% 30.04 in 0.2 mi Calm Calm - 0.01 in Fog Fog
10:55 PM 53.6 °F 51.8 °F 94% 30.04 in 0.2 mi Calm Calm - 0.01 in Fog Fog
11:15 PM 55.4 °F 53.6 °F 94% 30.05 in 1.5 mi Calm Calm - N/A   Overcast
11:35 PM 57.2 °F 55.4 °F 94% 30.05 in 5.0 mi Calm Calm - 0.01 in   Overcast
11:55 PM 59.0 °F 55.4 °F 88% 30.05 in 10.0 mi NE 3.5 mph - 0.01 in   Overcast